Date String (YYYY-MM-DD hh:mm:ss) UTC,Instrument flags,Ambient pressure (hPa),Sample flow (lpm),Bypass flow (lpm),Sample temperature (°C),Ambient temperature (°C),ASC tube jacket temperature (°C),LED temperature (°C),Box temperature (°C),Sample RH (%),Span deviation,Mass concentration (μg/m³),Mass concentration (μg/m³),Mass concentration (μg/m³)
DateTimeUTC,F1_M11,P_M11,Q1_M11,Q2_M11,T1_M11,T2_M11,T3_M11,T4_M11,T5_M11,U1_M11,ZSPAN_M11,X0_M11,X2_M11,X1_M11
2022-09-28 11:00:00,,0832.8,5.00,0.00,30.3,28.6,00.0,39.1,32.1,18.2,0000.0,0011.05,0003.57,0003.01
2022-09-28 11:01:00,,0832.9,5.00,0.00,30.3,28.6,00.0,39.1,32.1,18.2,0000.0,0011.25,0003.63,0003.01
2022-09-28 11:02:00,,0833.0,4.99,0.00,30.3,28.6,00.0,39.1,32.1,18.2,0000.0,0011.52,0003.69,0003.02
2022-09-28 11:03:00,,0833.1,5.01,0.00,30.3,28.6,00.0,39.1,32.1,18.0,0000.0,0011.66,0003.75,0003.01
2022-09-28 11:04:00,,0833.0,4.99,0.00,30.3,28.7,00.0,39.1,32.1,18.0,0000.0,0011.35,0003.78,0003.00
2022-09-28 11:05:00,,0833.0,5.01,0.00,30.3,28.7,00.0,39.1,32.1,18.0,0000.0,0010.34,0003.81,0002.99
2022-09-28 11:06:00,,0833.0,4.99,0.00,30.3,28.8,00.0,39.1,32.1,18.0,0000.0,0009.63,0003.80,0002.98
2022-09-28 11:07:00,,0833.0,5.00,0.00,30.3,28.8,00.0,39.1,32.1,18.1,0000.0,0010.04,0003.80,0002.97
2022-09-28 11:08:00,,0833.0,5.01,0.00,30.3,28.8,00.0,39.1,32.1,18.1,0000.0,0010.12,0003.80,0002.95
2022-09-28 11:09:00,,0833.0,4.99,0.00,30.3,28.8,00.0,39.1,32.2,18.2,0000.0,0010.14,0003.77,0002.93
2022-09-28 11:10:00,,0833.0,5.00,0.00,30.3,28.8,00.0,39.1,32.2,18.1,0000.0,0010.19,0003.75,0002.92
2022-09-28 11:11:00,,0833.0,5.00,0.00,30.4,28.8,00.0,39.1,32.2,18.1,0000.0,0010.45,0003.75,0002.92
2022-09-28 11:12:00,,0833.1,4.99,0.00,30.4,28.8,00.0,39.1,32.2,18.2,0000.0,0010.57,0003.71,0002.92
2022-09-28 11:13:00,,0833.1,5.00,0.00,30.3,28.8,00.0,39.1,32.2,18.2,0000.0,0010.60,0003.68,0002.92
2022-09-28 11:14:00,,0833.1,5.00,0.00,30.4,28.8,00.0,39.1,32.2,18.3,0000.0,0010.45,0003.63,0002.92
2022-09-28 11:15:00,,0833.1,5.01,0.00,30.4,28.8,00.0,39.1,32.2,18.3,0000.0,0010.98,0003.66,0002.93
2022-09-28 11:16:00,,0833.1,4.99,0.00,30.4,28.8,00.0,39.1,32.2,18.4,0000.0,0011.10,0003.68,0002.95
2022-09-28 11:17:00,,0833.1,5.01,0.00,30.4,28.9,00.0,39.1,32.2,18.4,0000.0,0012.02,0003.71,0002.96
2022-09-28 11:18:00,,0833.1,4.99,0.00,30.4,28.9,00.0,39.1,32.2,18.4,0000.0,0011.40,0003.71,0002.98
2022-09-28 11:19:00,,0833.2,5.01,0.00,30.4,28.9,00.0,39.1,32.2,18.4,0000.0,0010.47,0003.73,0002.99
2022-09-28 11:20:00,,0833.2,4.99,0.00,30.4,28.9,00.0,39.1,32.2,18.4,0000.0,0011.04,0003.77,0003.00
2022-09-28 11:21:00,,0833.3,5.00,0.00,30.4,28.8,00.0,39.1,32.2,18.4,0000.0,0012.14,0003.83,0003.02
2022-09-28 11:22:00,,0833.3,5.00,0.00,30.4,28.8,00.0,39.1,32.2,18.4,0000.0,0012.58,0003.84,0003.02
2022-09-28 11:23:00,,0833.3,5.01,0.00,30.4,28.7,00.0,39.1,32.2,18.5,0000.0,0012.41,0003.85,0003.03
2022-09-28 11:24:00,,0833.3,4.99,0.00,30.4,28.7,00.0,39.1,32.2,18.5,0000.0,0012.26,0003.84,0003.05
2022-09-28 11:25:00,,0833.2,5.01,0.00,30.4,28.7,00.0,39.1,32.2,18.4,0000.0,0012.37,0003.85,0003.05
2022-09-28 11:26:00,,0833.2,4.99,0.00,30.4,28.7,00.0,39.1,32.2,18.5,0000.0,0012.83,0003.84,0003.06
2022-09-28 11:27:00,,0833.3,5.02,0.00,30.4,28.7,00.0,39.1,32.2,18.5,0000.0,0012.20,0003.81,0003.07
2022-09-28 11:28:00,,0833.3,4.99,0.00,30.4,28.7,00.0,39.1,32.1,18.5,0000.0,0011.48,0003.79,0003.07
2022-09-28 11:29:00,,0833.3,4.99,0.00,30.4,28.7,00.0,39.1,32.2,18.4,0000.0,0011.20,0003.78,0003.06
2022-09-28 11:30:00,,0833.3,5.01,0.00,30.4,28.6,00.0,39.1,32.1,18.4,0000.0,0011.44,0003.77,0003.06
2022-09-28 11:31:00,,0833.3,4.99,0.00,30.3,28.6,00.0,39.1,32.1,18.7,0000.0,0010.97,0003.73,0003.05
2022-09-28 11:32:00,,0833.3,4.99,0.00,30.3,28.5,00.0,39.1,32.1,18.9,0000.0,0009.76,0003.71,0003.05
2022-09-28 11:33:00,,0833.3,5.00,0.00,30.3,28.5,00.0,39.1,32.1,19.7,0000.0,0008.83,0003.67,0003.06
2022-09-28 11:34:00,,0833.3,5.01,0.00,30.3,28.4,00.0,39.1,32.1,20.2,0000.0,0009.52,0003.64,0003.05
2022-09-28 11:35:00,,0833.3,4.99,0.00,30.3,28.4,00.0,39.1,32.0,20.3,0000.0,0009.52,0003.62,0003.06
2022-09-28 11:36:00,,0833.3,5.01,0.00,30.3,28.4,00.0,39.1,32.0,20.2,0000.0,0009.56,0003.65,0003.09
2022-09-28 11:37:00,,0833.4,4.99,0.00,30.3,28.4,00.0,39.1,32.0,19.9,0000.0,0008.97,0003.69,0003.11
2022-09-28 11:38:00,,0833.4,5.00,0.00,30.2,28.4,00.0,39.1,32.0,20.1,0000.0,0008.91,0003.70,0003.11
2022-09-28 11:39:00,,0833.4,5.01,0.00,30.2,28.3,00.0,39.0,32.0,20.0,0000.0,0008.77,0003.70,0003.13
2022-09-28 11:40:00,,0833.4,4.98,0.00,30.2,28.3,00.0,39.0,32.0,19.9,0000.0,0008.54,0003.70,0003.15
2022-09-28 11:41:00,,0833.4,5.01,0.00,30.2,28.3,00.0,39.0,32.0,19.8,0000.0,0008.40,0003.69,0003.17
2022-09-28 11:42:00,,0833.4,4.99,0.00,30.2,28.3,00.0,39.0,31.9,19.8,0000.0,0008.45,0003.73,0003.18
2022-09-28 11:43:00,,0833.4,5.01,0.00,30.2,28.3,00.0,39.0,31.9,19.8,0000.0,0008.47,0003.74,0003.18
2022-09-28 11:44:00,,0833.5,5.01,0.00,30.1,28.3,00.0,39.0,31.9,19.7,0000.0,0008.48,0003.74,0003.19
2022-09-28 11:45:00,,0833.5,4.99,0.00,30.1,28.3,00.0,39.0,31.9,19.6,0000.0,0008.20,0003.80,0003.21
2022-09-28 11:46:00,,0833.5,5.01,0.00,30.1,28.2,00.0,39.0,31.9,19.6,0000.0,0008.11,0003.83,0003.21
2022-09-28 11:47:00,,0833.5,4.99,0.00,30.1,28.1,00.0,38.9,31.8,19.6,0000.0,0007.92,0003.81,0003.20
2022-09-28 11:48:00,,0833.6,4.99,0.00,30.1,28.1,00.0,38.9,31.8,19.6,0000.0,0007.90,0003.81,0003.20
2022-09-28 11:49:00,,0833.5,5.01,0.00,30.0,28.1,00.0,38.9,31.8,19.7,0000.0,0008.10,0003.79,0003.21
2022-09-28 11:50:00,,0833.5,4.99,0.00,30.0,28.1,00.0,38.9,31.8,19.7,0000.0,0008.54,0003.78,0003.21
2022-09-28 11:51:00,,0833.5,4.99,0.00,30.0,28.1,00.0,38.9,31.8,19.7,0000.0,0008.91,0003.77,0003.21
2022-09-28 11:52:00,,0833.6,5.01,0.00,30.0,28.1,00.0,38.9,31.8,19.7,0000.0,0009.21,0003.78,0003.23
2022-09-28 11:53:00,,0833.5,5.01,0.00,30.0,28.1,00.0,38.8,31.8,19.7,0000.0,0009.22,0003.78,0003.24
2022-09-28 11:54:00,,0833.5,4.99,0.00,30.0,28.2,00.0,38.8,31.7,19.8,0000.0,0009.16,0003.77,0003.26
2022-09-28 11:55:00,,0833.5,5.01,0.00,30.0,28.1,00.0,38.8,31.7,19.8,0000.0,0009.11,0003.76,0003.26
2022-09-28 11:56:00,,0833.5,4.99,0.00,30.0,28.1,00.0,38.8,31.8,19.8,0000.0,0008.86,0003.78,0003.28
2022-09-28 11:57:00,,0833.6,5.01,0.00,30.0,28.0,00.0,38.8,31.7,19.8,0000.0,0008.84,0003.80,0003.29
2022-09-28 11:58:00,,0833.5,4.99,0.00,29.9,28.0,00.0,38.8,31.7,19.8,0000.0,0008.87,0003.83,0003.31
2022-09-28 11:59:00,,0833.5,4.99,0.00,29.9,28.0,00.0,38.8,31.7,19.8,0000.0,0008.90,0003.83,0003.34
